Weather reports worldwide

Advertisment
Aboyne, United Kingdom (3080): temperature & dewpoint: 21.06.2017 06:00:00 - 27.06.2017 06:00:00 (BST)Aboyne, United Kingdom (3080): temperature 5cm: 21.06.2017 06:00:00 - 27.06.2017 06:00:00 (BST)Aboyne, United Kingdom (3080): temperature -20cm & temperature -100cm: 21.06.2017 06:00:00 - 27.06.2017 06:00:00 (BST)Aboyne, United Kingdom (3080): wind speed & gusts: 21.06.2017 06:00:00 - 27.06.2017 06:00:00 (BST)Aboyne, United Kingdom (3080): wind direction: 21.06.2017 06:00:00 - 27.06.2017 06:00:00 (BST)Aboyne, United Kingdom (3080): reduced air pressure: 21.06.2017 06:00:00 - 27.06.2017 06:00:00 (BST)Aboyne, United Kingdom (3080): visibility: 21.06.2017 06:00:00 - 27.06.2017 06:00:00 (BST)Aboyne, United Kingdom (3080): precipitation: 21.06.2017 06:00:00 - 27.06.2017 06:00:00 (BST)
Date & Time tt [°C] td [°C] tt 5cm [°C] tt -20cm [°C] tt -100cm [°C] ff [km/h] ff [kn] fx [km/h] fx [kn] dd ppp [hPa] vv [km] rr [mm]
27.06.2017 06:00:00 - - - - - - - - - - - - 0,0
27.06.2017 05:00:00 8,4 8,4 - - - 5 3 - - E 1013,2 22 0,0
27.06.2017 04:00:00 8,2 8,2 - - - 2 1 - - E 1013,6 11 0,0
27.06.2017 03:00:00 8,2 8,2 - - - 2 1 - - ENE 1014,1 17 0,0
27.06.2017 02:00:00 8,2 8,2 - - - 5 3 - - ENE 1014,4 16 0,0
27.06.2017 01:00:00 8,2 8,1 - - - 5 3 - - E 1014,8 22 0,0
27.06.2017 00:00:00 8,4 8,4 - - - 4 2 - - E 1015,0 17 0,0
26.06.2017 23:00:00 8,7 8,7 - - - 9 5 - - ENE 1015,2 14 0,0
26.06.2017 22:00:00 9,0 9,0 - - - 13 7 - - E 1015,2 15 0,0
26.06.2017 21:00:00 9,4 9,4 - - - 13 7 - - E 1015,0 7 0,4
26.06.2017 20:00:00 10,0 9,5 - - - 13 7 - - E 1014,9 7 0,2
26.06.2017 19:00:00 10,9 9,4 - - - 16 9 - - E 1014,5 13 0,0
26.06.2017 18:00:00 12,2 9,3 - - - 13 7 - - ESE 1014,4 45 0,0
26.06.2017 17:00:00 14,0 10,0 - - - 15 8 - - ESE 1014,3 45 0,0
26.06.2017 16:00:00 13,5 9,9 - - - 15 8 - - E 1014,4 29 0,4
26.06.2017 15:00:00 11,1 9,4 - - - 9 5 - - NNE 1014,6 7 1,0
26.06.2017 14:00:00 14,0 9,8 - - - 11 6 - - ESE 1014,2 35 0,0
26.06.2017 13:00:00 12,7 8,8 - - - 5 3 - - S 1014,3 35 0,2
26.06.2017 12:00:00 12,1 8,9 - - - 5 3 - - ESE 1014,1 30 0,2
26.06.2017 11:00:00 12,7 6,6 - - - 4 2 - - WNW 1013,7 50 0,0
26.06.2017 10:00:00 12,1 7,6 - 14,0 12,9 8 4 - - W 1013,5 40 0,0
26.06.2017 09:00:00 10,7 9,1 - - - 13 7 - - NNW 1013,3 28 0,4
26.06.2017 08:00:00 11,0 7,2 - - - 5 3 - - W 1013,0 40 0,0
26.06.2017 07:00:00 10,2 7,5 - - - 8 4 - - W 1012,7 50 0,0
26.06.2017 06:00:00 8,7 7,7 - - - 2 1 - - ENE 1012,5 35 0,0
26.06.2017 05:00:00 6,1 5,9 - - - 4 2 - - WNW 1012,3 30 0,0
26.06.2017 04:00:00 6,7 6,3 - - - 4 2 - - NW 1012,3 35 0,0
26.06.2017 03:00:00 7,0 5,9 - - - 4 2 - - W 1011,9 40 0,0
26.06.2017 02:00:00 8,2 6,4 - - - 9 5 - - WNW 1011,7 30 0,0
26.06.2017 01:00:00 8,9 6,5 - - - 9 5 - - W 1011,3 45 0,0
26.06.2017 00:00:00 8,8 6,7 - - - 11 6 - - W 1010,8 40 0,0
25.06.2017 23:00:00 8,6 5,3 - - - 5 3 - - WSW 1010,2 40 0,0
25.06.2017 22:00:00 10,2 5,6 - - - 9 5 - - WNW 1009,5 45 0,0
25.06.2017 21:00:00 12,1 5,2 - - - 15 8 - - WNW 1008,9 40 0,0
25.06.2017 20:00:00 13,0 6,4 - - - 16 9 - - WNW 1007,9 40 0,0
25.06.2017 19:00:00 13,5 7,3 - - - 22 12 - - NW 1007,5 22 0,0
25.06.2017 18:00:00 13,8 6,4 - - - 16 9 - - NW 1006,6 40 0,0
25.06.2017 17:00:00 14,2 6,2 - - - 24 13 - - NW 1006,0 40 0,0
25.06.2017 16:00:00 15,3 5,8 - - - 16 9 - - WNW 1005,0 40 0,0
25.06.2017 15:00:00 15,7 5,3 - - - 22 12 - - WNW 1004,7 40 0,0
25.06.2017 14:00:00 15,3 6,3 - - - 24 13 48 26 NW 1004,5 29 0,0
25.06.2017 13:00:00 16,4 5,8 - - - 29 16 46 25 WNW 1004,2 40 0,0
25.06.2017 12:00:00 15,8 7,5 - - - 29 16 52 28 WNW 1004,1 23 0,0
25.06.2017 11:00:00 13,8 6,5 - - - 26 14 46 25 WNW 1004,0 40 0,0
25.06.2017 10:00:00 13,5 7,0 - 14,2 12,9 26 14 - - WNW 1003,7 40 0,0
25.06.2017 09:00:00 11,4 6,0 - - - 26 14 46 25 WNW 1003,6 40 0,0
25.06.2017 08:00:00 11,6 5,5 - - - 28 15 - - W 1003,1 50 0,0
25.06.2017 07:00:00 11,0 5,7 - - - 26 14 46 25 WNW 1002,7 45 0,0
25.06.2017 06:00:00 10,3 5,4 - - - 15 8 - - W 1002,4 50 0,0
25.06.2017 05:00:00 9,9 6,1 - - - 18 10 - - W 1002,0 50 0,0
25.06.2017 04:00:00 9,9 6,7 - - - 16 9 - - WSW 1002,1 50 0,0
25.06.2017 03:00:00 10,1 6,2 - - - 13 7 - - W 1001,7 45 0,0
25.06.2017 02:00:00 10,7 5,7 - - - 24 13 - - WSW 1001,5 45 0,0
25.06.2017 01:00:00 10,7 5,2 - - - 26 14 - - W 1001,3 45 0,0
25.06.2017 00:00:00 9,8 4,6 - - - 21 11 - - W 1001,5 40 0,0
24.06.2017 23:00:00 10,3 4,4 - - - 26 14 - - W 1001,4 45 0,0
24.06.2017 22:00:00 11,0 4,3 - - - 22 12 46 25 W 1001,3 45 0,0
24.06.2017 21:00:00 12,1 5,0 - - - 24 13 57 31 W 1001,0 50 0,0
24.06.2017 20:00:00 12,3 5,1 - - - 34 18 61 33 W 1000,7 45 0,0
24.06.2017 19:00:00 13,1 6,3 - - - 31 17 54 29 WSW 1000,6 35 0,0
24.06.2017 18:00:00 13,7 5,5 - - - 29 16 63 34 W 1000,9 45 0,0
24.06.2017 17:00:00 14,9 6,9 - - - 26 14 50 27 W 1000,9 45 0,0
24.06.2017 16:00:00 15,5 6,7 - - - 26 14 52 28 W 1001,3 35 0,0
24.06.2017 15:00:00 15,1 6,3 - - - 24 13 52 28 W 1001,3 40 0,0
24.06.2017 14:00:00 14,8 6,2 - - - 21 11 52 28 W 1001,8 35 0,0
24.06.2017 13:00:00 15,6 6,0 - - - 31 17 48 26 W 1001,7 50 0,0
24.06.2017 12:00:00 14,3 6,2 - - - 28 15 - - W 1002,4 30 0,0
24.06.2017 11:00:00 13,5 5,2 - - - 24 13 46 25 W 1002,5 40 0,0
24.06.2017 10:00:00 13,1 6,3 - 14,5 12,9 16 9 - - W 1003,0 50 0,0
24.06.2017 09:00:00 12,7 5,9 - - - 13 7 - - W 1002,9 40 0,0
24.06.2017 08:00:00 12,8 6,1 - - - 16 9 - - W 1003,1 35 0,0
24.06.2017 07:00:00 11,6 5,7 - - - 24 13 - - W 1003,3 50 0,0
24.06.2017 06:00:00 9,5 5,2 - - - 5 3 - - WSW 1003,7 40 0,0
24.06.2017 05:00:00 7,2 4,8 - - - 4 2 - - E 1004,0 40 0,0
24.06.2017 04:00:00 8,4 4,2 - - - 4 2 - - SSE 1004,2 45 0,0
24.06.2017 03:00:00 9,6 6,5 - - - 9 5 - - W 1004,7 45 0,0
24.06.2017 02:00:00 8,0 4,4 - - - 5 3 - - SW 1004,9 40 0,0
24.06.2017 01:00:00 10,1 4,3 - - - 5 3 - - SSW 1005,2 45 0,0
24.06.2017 00:00:00 11,2 5,9 - - - 13 7 - - W 1005,7 40 0,0
23.06.2017 23:00:00 10,7 5,4 - - - 16 9 - - W 1005,7 40 0,0
23.06.2017 22:00:00 11,6 5,2 - - - 16 9 - - WSW 1005,7 50 0,0
23.06.2017 21:00:00 13,5 5,4 - - - 21 11 - - W 1005,4 45 0,0
23.06.2017 20:00:00 15,3 6,7 - - - 22 12 - - W 1005,1 40 0,0
23.06.2017 19:00:00 16,1 6,7 - - - 26 14 - - W 1004,7 50 0,0
23.06.2017 18:00:00 17,9 7,6 - - - 24 13 - - W 1004,4 50 0,0
23.06.2017 17:00:00 19,0 7,4 - - - 21 11 46 25 W 1004,0 50 0,0
23.06.2017 16:00:00 19,0 6,6 - - - 22 12 48 26 W 1003,8 40 0,0
23.06.2017 15:00:00 18,7 8,1 - - - 26 14 46 25 W 1003,5 30 0,0
23.06.2017 14:00:00 17,6 8,8 - - - 26 14 - - W 1002,9 45 0,0
23.06.2017 13:00:00 17,3 9,1 - - - 22 12 - - W 1002,6 50 0,0
23.06.2017 12:00:00 17,5 10,1 - - - 31 17 52 28 W 1001,5 50 0,0
23.06.2017 11:00:00 18,3 12,6 - - - 24 13 48 26 W 1001,1 45 0,0
23.06.2017 10:00:00 18,2 12,5 - 14,7 12,7 18 10 - - W 1000,7 40 0,0
23.06.2017 09:00:00 15,4 11,9 - - - 11 6 - - S 1000,9 50 0,0
23.06.2017 08:00:00 15,6 11,9 - - - 11 6 - - S 1000,8 45 0,0
23.06.2017 07:00:00 14,8 11,1 - - - 18 10 - - SSW 1001,2 50 0,0
23.06.2017 06:00:00 14,0 10,6 - - - 22 12 - - SW 1001,3 50 0,0
23.06.2017 05:00:00 13,2 10,5 - - - 9 5 - - SSW 1002,0 50 0,0
23.06.2017 04:00:00 13,0 10,3 - - - 18 10 - - SW 1002,4 50 0,0
23.06.2017 03:00:00 12,4 10,6 - - - 13 7 - - SSW 1003,3 45 0,0
23.06.2017 02:00:00 11,2 11,0 - - - 8 4 - - SE 1004,9 50 0,8
23.06.2017 01:00:00 11,9 10,5 - - - 2 1 - - SW 1006,1 17 1,4
23.06.2017 00:00:00 12,5 10,9 - - - 8 4 - - WSW 1006,3 40 0,0
22.06.2017 23:00:00 12,6 12,1 - - - 5 3 - - W 1006,6 16 0,2
22.06.2017 22:00:00 13,3 11,7 - - - 9 5 - - S 1006,8 40 0,0
22.06.2017 21:00:00 13,8 12,1 - - - 13 7 - - SSW 1007,0 50 0,0
22.06.2017 20:00:00 13,8 13,7 - - - 5 3 - - E 1007,5 20 0,0
22.06.2017 19:00:00 14,0 14,0 - - - 4 2 - - S 1007,4 10 0,6
22.06.2017 18:00:00 14,2 13,0 - - - 11 6 - - SSW 1007,9 9 0,0
22.06.2017 17:00:00 13,8 13,7 - - - 16 9 - - E 1007,8 15 0,0
22.06.2017 16:00:00 13,7 13,0 - - - 13 7 - - E 1008,3 21 0,0
22.06.2017 15:00:00 13,8 12,9 - - - 15 8 - - E 1008,4 20 0,0
22.06.2017 14:00:00 15,2 12,8 - - - 15 8 - - ESE 1008,4 30 0,0
22.06.2017 13:00:00 16,2 13,3 - - - 16 9 - - E 1008,0 30 0,0
22.06.2017 12:00:00 16,2 13,8 - - - 11 6 - - E 1008,0 30 0,0
22.06.2017 11:00:00 15,3 12,6 - - - 13 7 - - NNW 1008,3 30 0,0
22.06.2017 10:00:00 16,4 13,4 - 14,7 12,7 5 3 - - N 1007,6 40 0,0
22.06.2017 09:00:00 15,9 13,6 - - - 8 4 - - NW 1007,3 50 0,0
22.06.2017 08:00:00 15,1 14,0 - - - 5 3 - - SSW 1007,4 30 0,0
22.06.2017 07:00:00 14,6 13,1 - - - 9 5 - - WNW 1007,1 35 0,0
22.06.2017 06:00:00 14,5 14,0 - - - 4 2 - - W 1007,0 30 0,0
22.06.2017 05:00:00 14,9 14,1 - - - 8 4 - - NW 1006,8 40 0,0
22.06.2017 04:00:00 15,1 15,1 - - - 4 2 - - W 1006,8 3,3 0,0
22.06.2017 03:00:00 15,3 15,3 - - - 4 2 - - W 1007,0 6 0,0
22.06.2017 02:00:00 15,3 15,3 - - - 2 1 - - NNW 1006,9 4,3 0,8
22.06.2017 01:00:00 15,7 15,7 - - - 2 1 - - ENE 1007,4 1,7 3,8
22.06.2017 00:00:00 15,6 15,6 - - - 2 1 - - ENE 1007,6 3,0 0,0
21.06.2017 23:00:00 15,5 15,5 - - - 4 2 - - N 1007,7 2,9 0,0
21.06.2017 22:00:00 15,9 15,9 - - - 8 4 - - ESE 1007,7 4,9 0,4
21.06.2017 21:00:00 16,0 16,0 - - - 8 4 - - ESE 1008,7 15 0,2
21.06.2017 20:00:00 16,1 16,1 - - - 5 3 - - E 1009,4 3,9 2,6
21.06.2017 19:00:00 16,4 16,2 - - - 5 3 - - ENE 1009,9 2,9 4,6
21.06.2017 18:00:00 18,8 15,2 - - - 16 9 - - SW 1009,7 28 0,0
21.06.2017 17:00:00 20,0 16,0 - - - 11 6 - - S 1009,1 30 0,0
21.06.2017 16:00:00 17,8 14,3 - - - 22 12 - - SSW 1010,2 28 0,0
21.06.2017 15:00:00 19,1 14,4 - - - 15 8 - - SSW 1010,8 30 0,0
21.06.2017 14:00:00 16,5 13,0 - - - 13 7 - - S 1011,8 30 0,0
21.06.2017 13:00:00 16,4 11,9 - - - 13 7 - - ESE 1012,2 30 0,0
21.06.2017 12:00:00 15,9 12,0 - - - 13 7 - - ESE 1012,8 35 0,0
21.06.2017 11:00:00 16,2 12,4 - - - 16 9 - - E 1013,3 30 0,0
21.06.2017 10:00:00 14,4 11,5 14,4 14,5 12,7 11 6 - - SE 1014,5 23 0,0
21.06.2017 09:00:00 13,6 11,3 - - - 9 5 - - SE 1015,4 28 0,0
21.06.2017 08:00:00 13,8 12,0 - - - 5 3 - - E 1015,5 40 0,0
21.06.2017 07:00:00 12,9 12,0 - - - 5 3 - - E 1016,5 40 0,0
21.06.2017 06:00:00 12,5 11,6 - - - 4 2 - - SE 1017,2 40 0,0

tt = temperature
td = dewpoint
tt 5cm = temperature 5cm
tt -20cm = temperature -20cm
tt -100cm = temperature -100cm
ff = wind speed
fx = gusts
dd = wind direction
ppp = reduced air pressure
vv = visibility
rr = precipitation

Next stations